Vertical_Velocity
9 3 1 6 11 14 16 13 8 5 5 7 6 5 4 3 3 4 5 5 6 8 11 13 11 8 6 7 8 7 4 4 6 7 7 6 6 6 7 7 5 3 2 3 3 4 4 4 4 4 4 3 3 3 4 5 5 5 5 5 -3 -12 -19 -19 -10 -6 -6 -8 -6
12 10 7 8 7 9 10 10 10 12 13 11 10 8 5 4 3 3 4 4 5 6 8 11 12 11 9 7 9 7 5 4 5 6 7 5 5 6 8 10 9 7 5 4 4 5 5 5 4 3 2 1 1 1 1 1 2 3 3 2 -1 -6 -12 -18 -17 -15 -15 -18 -20
8 14 18 14 8 6 6 6 7 9 11 13 14 13 11 8 7 6 6 4 4 4 4 5 7 7 7 5 8 7 6 4 4 4 4 4 4 5 7 9 10 9 8 6 6 6 6 6 6 6 4 1 1 -0 -1 -1 2 3 3 1 1 0 -2 -7 -9 -7 -6 -8 -14
9 14 19 21 14 9 6 5 6 8 10 13 13 11 9 8 8 7 7 6 5 3 2 1 2 3 4 5 7 7 5 3 3 2 2 2 3 4 6 8 11 11 10 8 7 6 6 6 7 7 5 3 2 0 -1 -1 2 3 3 2 4 3 1 -3 -2 -0 1 -0 -1
10 13 15 14 15 13 10 5 4 5 7 10 8 8 7 6 5 4 4 2 1 -0 -1 -2 -1 -0 1 3 5 5 4 3 3 3 3 3 3 4 5 6 7 7 6 6 5 5 5 6 7 6 5 4 2 0 -1 1 3 3 3 3 5 3 1 -1 -2 -1 0 -0 1
4 4 2 -0 1 3 6 7 4 2 1 1 1 2 3 2 1 1 0 -0 -1 -2 -3 -3 -3 -1 1 3 4 5 5 5 4 4 3 3 4 4 3 2 2 1 1 1 1 2 3 5 6 7 6 5 3 -0 -1 4 4 3 3 4 2 2 1 -0 -2 -1 1 1 1
1 -0 -1 -2 -2 -1 -1 0 0 0 -0 -2 -3 -3 -3 -2 -1 0 1 1 1 1 -0 -2 0 3 5 7 9 8 7 6 6 6 5 5 4 4 3 1 0 1 1 3 2 2 2 4 5 6 6 6 5 5 5 7 5 4 2 1 1 2 2 -0 -1 1 3 2 2
-1 -2 -2 -0 1 3 3 2 1 1 1 -0 -3 -5 -5 -4 -2 -1 0 1 2 3 2 2 4 7 9 12 12 10 7 7 7 6 5 5 4 5 5 4 3 2 2 3 4 4 6 8 10 11 10 9 10 11 11 11 11 10 7 4 4 4 4 1 2 3 4 4 4
-2 -2 -0 2 4 6 8 8 7 5 3 2 0 -2 -4 -4 -3 -2 -2 -1 -0 -0 -1 -0 1 5 10 14 12 9 6 6 5 3 1 -0 1 3 4 5 5 4 4 4 4 4 4 5 6 8 10 12 12 11 12 14 17 17 16 15 13 10 8 5 5 5 5 6 6
-2 -1 -0 2 3 4 5 7 7 6 5 5 5 3 1 -1 0 1 1 -1 -1 -2 -3 -3 -4 -3 1 7 7 6 5 4 4 3 2 1 3 5 7 8 7 6 6 6 7 6 5 4 3 4 6 7 8 7 7 8 9 10 12 17 20 22 21 17 14 12 9 6 5
-2 -2 -2 -1 0 1 2 1 1 2 3 4 4 4 3 2 3 3 2 2 2 1 0 -1 -3 -5 -6 -4 1 4 6 6 6 6 7 9 8 7 7 6 6 6 7 8 9 9 8 7 6 6 5 4 2 0 -1 -2 -1 1 4 8 12 16 18 18 18 17 15 11 9
-4 -4 -4 -4 -2 -1 0 0 -0 -1 -1 -1 -1 -0 1 1 1 1 1 2 3 3 2 1 -1 -5 -7 -7 0 6 9 8 6 6 8 10 8 6 4 2 3 4 5 7 7 6 4 3 1 -1 -2 -3 -3 -4 -4 -4 -2 -0 2 3 5 5 5 5 9 12 14 13 13
-4 -4 -4 -4 -3 -2 -1 -1 -2 -3 -3 -3 -1 -0 1 1 1 0 0 1 1 1 2 2 0 -2 -5 -7 -3 -0 1 2 3 4 4 3 2 1 0 -1 -1 0 1 2 1 0 -1 -4 -5 -5 -3 -2 -2 -3 -3 -2 -1 0 1 2 1 -0 -1 -2 1 4 6 8 9
-1 -2 -2 -3 -3 -3 -3 -3 -3 -4 -4 -4 -2 -1 0 1 1 0 0 -0 -3 -2 0 4 6 5 3 2 5 5 4 3 4 2 -0 -1 -0 -0 -0 -1 -1 -1 -2 -3 -4 -5 -5 -6 -6 -4 -3 -1 -1 -2 -2 -2 -1 -0 0 0 -1 -2 -3 -1 0 2 2 2 1
1 0 0 0 -1 -2 -3 -3 -4 -4 -5 -5 -4 -3 -2 -1 -1 -0 -0 -1 -2 -2 -1 1 3 4 5 5 6 6 7 7 4 -0 -4 -3 -1 -0 -0 -1 -1 -2 -3 -4 -6 -6 -5 -5 -4 -3 -2 -0 0 -0 -1 -2 -1 -1 -1 -1 -2 -2 -1 -0 1 1 1 1 -0
-1 -0 0 1 1 0 -1 -2 -3 -4 -5 -6 -5 -5 -4 -3 -2 -2 -2 -2 -2 -2 -2 -1 0 1 1 2 2 2 2 4 2 -1 -4 -4 -2 -1 -1 -2 -3 -3 -3 -4 -5 -5 -4 -3 -2 -2 -1 1 3 2 1 -1 -1 -1 -1 -1 0 1 1 2 2 2 2 2 1
1 1 2 2 2 2 1 -1 -2 -3 -3 -4 -5 -5 -5 -4 -3 -2 -3 -3 -3 -3 -3 -3 -2 -1 -1 -2 -1 -2 -3 -3 -3 -3 -3 -3 -3 -3 -4 -5 -5 -5 -5 -5 -5 -4 -3 -2 -1 -0 1 3 4 4 3 2 0 -0 -0 1 2 2 3 3 3 3 2 2 1
4 4 4 5 4 4 3 2 1 -0 -1 -3 -3 -4 -4 -3 -1 0 -1 -2 -2 -2 -2 -3 -2 -2 -3 -4 -4 -4 -5 -8 -8 -7 -4 -3 -3 -5 -6 -8 -7 -7 -6 -5 -5 -5 -4 -2 -1 0 1 2 2 3 4 4 3 2 1 1 2 3 3 3 3 3 2 2 1
4 4 4 4 4 3 3 3 2 1 1 0 -0 -1 -0 1 2 3 3 2 2 2 1 -1 -1 -1 -1 -2 -3 -4 -5 -7 -8 -7 -4 -2 -2 -3 -6 -8 -8 -7 -7 -6 -6 -5 -4 -4 -3 -2 -2 -2 -1 -0 1 3 3 2 2 1 1 1 2 2 2 2 1 1 1
2 2 2 2 2 2 2 2 1 1 2 2 1 1 1 1 1 3 4 5 4 3 3 2 3 3 3 2 1 -0 -2 -4 -6 -6 -4 -1 -0 -1 -2 -3 -4 -5 -6 -6 -6 -5 -5 -5 -5 -5 -4 -4 -4 -3 -1 0 1 1 0 -0 -0 -0 0 1 -0 -1 -1 -1 -1
1 1 1 1 1 1 0 -0 -0 -0 0 1 0 -0 -0 -1 -1 0 2 3 3 4 5 6 5 4 4 3 3 2 0 -2 -3 -5 -5 -3 -2 -0 0 1 -1 -2 -4 -6 -6 -6 -5 -4 -4 -4 -4 -4 -4 -4 -3 -2 -2 -2 -3 -3 -2 -1 -0 -0 -1 -2 -2 -3 -2
1 1 1 1 0 0 -0 -1 -1 -1 -1 -1 -1 -1 -1 -1 -0 0 1 2 2 2 2 2 4 4 4 3 2 1 0 -1 -2 -3 -4 -4 -3 -3 -2 -1 -1 -2 -3 -4 -5 -5 -4 -3 -2 -2 -1 -2 -3 -4 -4 -3 -3 -4 -4 -4 -3 -2 -1 -1 -1 -1 -2 -3 -3
0 0 0 0 0 -0 -0 -1 -1 -1 -1 -1 -1 -0 0 1 1 2 2 2 2 2 1 1 1 1 1 2 3 3 2 1 -0 -1 -1 -2 -2 -3 -3 -2 -2 -3 -5 -5 -4 -3 -3 -3 -2 -1 -0 1 -1 -2 -2 -1 -1 -2 -3 -3 -3 -2 -1 -1 -1 -1 -1 -2 -3
-0 -0 -0 -0 -0 -0 -1 -1 -1 -1 -1 -1 -0 0 1 1 2 2 2 2 2 2 2 1 1 1 1 1 2 2 3 3 3 3 2 1 -0 -1 -1 -1 -2 -3 -4 -4 -2 -1 -1 -1 -2 -2 -1 -0 -0 -0 0 1 1 -0 -1 -2 -2 -2 -1 -1 -1 -1 -1 -2 -2
-0 -0 -1 -1 -1 -1 -1 -1 -1 -1 -0 -0 0 0 1 1 1 2 2 2 2 2 2 2 2 2 2 2 2 2 1 1 2 2 3 3 3 2 2 1 -1 -2 -3 -3 -2 -1 0 1 1 1 1 -0 -2 -2 -2 -1 -1 -0 -0 -1 -1 -2 -2 -2 -2 -1 -1 -1 -0
-0 -0 -1 -1 -1 -1 -1 -0 -0 0 1 1 1 1 1 1 1 1 1 1 1 2 2 2 2 2 2 2 2 2 2 1 0 -0 -0 0 0 1 2 3 1 0 -1 -2 -1 -1 0 1 1 2 2 1 -1 -3 -4 -5 -3 -1 0 0 -0 -1 -2 -2 -3 -2 -1 1 1
-0 -0 -0 -0 -0 -0 0 0 1 1 2 2 2 2 1 1 1 1 1 1 1 2 2 2 2 2 2 3 3 3 2 1 1 0 -1 -1 -1 -1 -1 -1 -1 -1 -0 1 2 2 2 2 1 1 0 -0 -1 -2 -2 -2 -1 1 2 3 3 2 1 -1 -2 -2 -0 2 2
-1 -0 -0 -0 -0 0 0 1 1 1 1 2 2 2 1 1 1 1 1 2 2 2 2 2 2 2 2 2 2 3 3 2 2 1 0 -1 -1 -1 -2 -2 -2 -2 -1 0 1 2 2 2 2 1 0 -1 -1 -1 -0 2 3 3 3 4 4 4 4 3 2 1 1 2 2
-1 -1 -0 -0 -1 -1 -1 -0 -0 -0 0 1 1 1 1 1 1 1 1 2 2 2 2 2 2 2 2 2 1 2 2 2 2 2 1 0 -0 -1 -1 -1 -1 -1 -1 0 0 0 0 0 -0 -1 -0 0 0 1 1 2 2 1 1 1 2 3 5 7 6 3 1 1 3
-1 -1 -1 -1 -1 -1 -1 -1 -1 -1 -0 -0 0 1 1 1 1 1 1 1 1 1 1 0 0 1 1 1 1 1 1 2 2 2 1 1 1 0 -0 -0 -1 -1 -1 0 0 0 0 1 -0 -0 -1 0 2 3 3 2 2 1 -0 -1 -0 2 3 5 3 1 -1 -1 2
-1 -1 -1 -1 -1 -1 -1 -1 -1 -1 -0 -0 -0 0 0 1 0 0 0 0 0 0 0 0 -0 -1 -1 -1 -0 0 0 1 1 1 1 1 0 -0 0 0 -0 -0 -1 -0 -0 0 1 2 2 1 1 1 2 3 3 3 2 1 0 -1 -1 -0 1 1 1 -1 -3 -4 0
0 -0 -1 -1 -0 -0 0 -0 -1 -1 -1 -0 -0 -0 -0 0 0 1 1 0 -0 -0 -0 -0 -0 -1 -1 -1 -1 -0 0 0 1 1 1 0 -1 -1 -1 -0 0 1 0 0 -0 -0 0 1 2 2 2 2 1 0 0 0 1 1 0 -1 -1 -1 -1 -1 -1 -2 -4 -4 -1
-0 -0 -0 -0 -0 -0 0 0 -0 -1 -1 -0 -0 -1 -1 -1 -0 0 0 0 -0 -0 -1 -1 -1 -1 -1 -2 -2 -1 -1 -0 1 1 1 1 -0 -1 -1 -1 0 1 1 1 0 -0 -1 -1 0 1 2 2 1 -0 -1 -2 -2 -1 -1 -2 -2 -2 -1 -1 -1 -2 -3 -4 -2
-2 -1 -1 -1 -1 -1 -1 -0 -1 -1 -1 -1 -0 -0 -1 -2 -2 -2 -1 -1 -1 -1 -1 -1 -1 -1 -1 -1 -1 -2 -2 -1 -1 0 1 1 1 0 -0 -1 1 2 2 1 1 0 -0 -1 -1 -1 -1 0 0 0 -0 -1 -1 -2 -2 -3 -2 -2 -1 0 -0 -1 -2 -3 -3
-4 -4 -3 -2 -2 -2 -2 -2 -1 -1 -2 -2 -2 -1 -1 -1 -2 -2 -2 -2 -2 -2 -1 -1 -1 -1 -1 -1 -1 -1 -2 -2 -2 -1 -0 0 0 0 0 0 2 3 3 2 1 1 0 -0 -1 -2 -2 -1 0 1 1 0 -1 -2 -2 -2 -2 -2 -1 0 0 -0 -1 -2 -2
-3 -4 -4 -3 -3 -3 -3 -3 -3 -2 -2 -2 -3 -3 -3 -2 -2 -2 -2 -3 -3 -3 -2 -1 -1 -1 -1 -1 -1 -0 -1 -2 -2 -2 -1 -0 -1 -1 -1 -0 2 3 4 3 2 1 0 0 0 -0 -1 -1 -1 -0 0 0 -1 -1 -2 -1 -2 -2 -2 -1 0 0 0 -1 -2
-1 -2 -3 -3 -3 -2 -2 -2 -3 -3 -3 -2 -2 -3 -3 -3 -3 -2 -2 -3 -5 -5 -4 -3 -2 -2 -2 -2 -2 -1 -1 -1 -2 -2 -2 -1 -1 -2 -3 -3 -0 2 4 4 2 1 0 0 0 0 -0 -1 -2 -1 -1 0 -0 -1 -1 -2 -2 -2 -2 -1 0 0 0 -0 -1
-0 -1 -1 -2 -2 -2 -2 -2 -2 -2 -2 -2 -1 -1 -1 -2 -2 -2 -1 -2 -3 -5 -5 -4 -3 -3 -2 -2 -3 -2 -1 0 -1 -2 -3 -2 -1 -2 -3 -4 -3 0 3 4 3 1 0 -1 -0 -0 -0 -1 -1 -1 -1 -0 -0 -1 -1 -1 -2 -2 -2 -1 -0 -0 -0 -0 -0
-1 -1 -2 -2 -2 -2 -2 -1 -1 -2 -2 -3 -2 -1 -1 -1 -1 -1 -0 0 -0 -2 -3 -4 -4 -3 -2 -2 -3 -4 -3 -1 0 -1 -2 -3 -2 -2 -2 -4 -5 -2 1 4 3 2 0 -1 -1 -1 -1 -1 -1 -1 -1 -0 -1 -1 -1 -1 -1 -1 -1 -1 -1 -0 -0 0 0
-3 -3 -3 -3 -3 -3 -3 -3 -2 -1 -2 -3 -3 -3 -3 -2 -2 -2 -1 -0 -0 -1 -2 -3 -3 -2 -2 -1 -3 -4 -5 -3 -0 1 -0 -2 -2 -2 -3 -4 -5 -4 -1 3 3 2 1 0 -1 -1 -2 -2 -2 -2 -1 -1 -1 -1 -1 -1 -1 -1 -1 -2 -1 -1 0 1 1
-4 -4 -4 -3 -3 -3 -4 -4 -3 -2 -2 -2 -3 -3 -3 -3 -3 -2 -2 -2 -1 -1 -2 -3 -3 -3 -2 -1 -2 -4 -5 -5 -2 0 1 0 -1 -2 -2 -3 -4 -4 -3 1 2 3 2 1 0 -1 -2 -3 -3 -2 -2 -1 -1 -1 -1 -1 -0 -0 -1 -1 -1 -1 0 1 0
Height
1453 1453 1453 1454 1455 1456 1456 1457 1458 1460 1461 1462 1463 1464 1466 1467 1469 1469 1470 1471 1472 1472 1473 1473 1474 1475 1477 1478 1479 1480 1481 1482 1483 1483 1484 1485 1486 1487 1487 1487 1488 1488 1489 1490 1491 1492 1492 1492 1493 1493 1493 1493 1494 1494 1495 1495 1496 1496 1496 1497 1497 1499 1499 1499 1499 1500 1501 1502 1502
1453 1453 1453 1454 1454 1455 1456 1457 1458 1459 1460 1461 1461 1463 1464 1466 1467 1468 1469 1470 1471 1472 1472 1473 1473 1474 1476 1477 1478 1479 1480 1481 1482 1483 1483 1484 1484 1485 1486 1486 1486 1486 1487 1488 1489 1489 1490 1490 1491 1491 1491 1491 1492 1492 1492 1493 1494 1494 1495 1495 1496 1497 1497 1498 1498 1499 1500 1500 1500
1451 1452 1454 1454 1455 1455 1456 1457 1458 1458 1459 1460 1460 1461 1462 1464 1466 1467 1468 1469 1470 1471 1472 1472 1473 1474 1475 1476 1477 1478 1479 1480 1481 1482 1482 1482 1483 1484 1484 1484 1484 1484 1485 1486 1487 1487 1487 1488 1488 1488 1488 1488 1489 1489 1489 1490 1491 1492 1492 1492 1492 1493 1493 1494 1495 1496 1496 1497 1497
1451 1452 1453 1455 1456 1456 1457 1457 1458 1459 1459 1460 1460 1461 1462 1463 1465 1466 1467 1468 1469 1470 1471 1472 1472 1474 1475 1475 1476 1477 1477 1478 1479 1480 1480 1481 1482 1482 1482 1482 1482 1482 1482 1483 1484 1485 1485 1486 1486 1485 1485 1485 1486 1486 1486 1487 1488 1489 1489 1489 1489 1489 1489 1490 1491 1492 1492 1492 1492
1450 1451 1452 1453 1455 1456 1457 1457 1458 1459 1459 1460 1460 1460 1461 1462 1463 1465 1466 1467 1468 1469 1470 1471 1472 1473 1473 1474 1475 1475 1476 1476 1477 1477 1478 1478 1479 1479 1480 1480 1480 1480 1481 1481 1482 1482 1483 1483 1483 1483 1483 1483 1482 1483 1483 1484 1485 1485 1485 1485 1485 1485 1485 1486 1487 1488 1488 1489 1489
1450 1450 1451 1452 1454 1455 1456 1457 1457 1458 1459 1459 1460 1460 1461 1462 1463 1464 1465 1466 1467 1467 1468 1469 1470 1471 1472 1472 1473 1473 1473 1474 1475 1475 1476 1476 1477 1477 1477 1477 1477 1477 1477 1478 1478 1479 1479 1480 1480 1480 1480 1480 1479 1479 1480 1481 1482 1482 1482 1482 1481 1482 1482 1483 1483 1484 1485 1485 1486
1450 1451 1452 1452 1453 1454 1455 1456 1457 1457 1458 1458 1459 1460 1461 1462 1463 1464 1465 1465 1466 1467 1467 1468 1469 1470 1470 1470 1471 1471 1471 1472 1472 1473 1474 1474 1475 1475 1475 1474 1474 1475 1475 1475 1475 1476 1476 1476 1477 1477 1477 1477 1477 1476 1477 1477 1478 1478 1478 1478 1477 1478 1479 1479 1480 1481 1482 1482 1482
1450 1451 1452 1453 1454 1454 1455 1456 1456 1457 1457 1458 1459 1460 1461 1462 1462 1463 1464 1465 1465 1466 1466 1467 1467 1468 1468 1469 1469 1469 1469 1470 1471 1471 1472 1472 1472 1472 1472 1472 1472 1472 1472 1473 1473 1473 1473 1473 1474 1474 1474 1474 1474 1474 1474 1475 1475 1475 1475 1474 1474 1474 1475 1476 1477 1478 1478 1479 1479
1451 1452 1452 1453 1453 1454 1454 1455 1456 1456 1457 1457 1458 1459 1460 1461 1462 1462 1463 1464 1464 1465 1465 1465 1466 1467 1467 1467 1467 1468 1468 1468 1468 1469 1469 1470 1470 1470 1470 1470 1470 1470 1470 1471 1471 1470 1470 1470 1471 1471 1471 1471 1471 1471 1472 1473 1473 1473 1473 1473 1472 1472 1472 1473 1474 1474 1475 1475 1476
1452 1452 1453 1453 1453 1453 1453 1454 1454 1455 1456 1457 1457 1458 1459 1460 1461 1462 1462 1462 1463 1463 1464 1464 1464 1465 1466 1466 1466 1467 1467 1467 1467 1467 1467 1468 1468 1468 1468 1468 1468 1468 1468 1468 1468 1468 1468 1467 1467 1467 1467 1467 1468 1468 1469 1470 1471 1471 1471 1471 1471 1471 1471 1471 1471 1472 1472 1472 1472
1453 1453 1453 1453 1453 1453 1453 1453 1454 1454 1454 1455 1456 1457 1458 1459 1459 1460 1461 1461 1461 1462 1462 1462 1463 1463 1464 1465 1465 1465 1465 1465 1465 1465 1466 1466 1466 1466 1466 1466 1466 1466 1466 1466 1466 1466 1465 1465 1464 1464 1464 1465 1465 1466 1467 1468 1469 1469 1469 1469 1469 1469 1469 1469 1470 1470 1470 1470 1470
1453 1454 1454 1454 1454 1454 1454 1454 1454 1454 1454 1455 1455 1456 1457 1457 1458 1459 1459 1460 1460 1460 1461 1461 1462 1462 1463 1464 1464 1464 1463 1463 1463 1463 1463 1463 1464 1464 1464 1464 1464 1464 1464 1464 1463 1463 1463 1462 1462 1462 1463 1463 1464 1465 1466 1467 1467 1467 1468 1467 1467 1467 1467 1467 1467 1468 1468 1468 1468
1454 1454 1454 1455 1455 1455 1455 1454 1454 1454 1455 1455 1455 1456 1456 1457 1457 1458 1459 1459 1459 1460 1460 1460 1461 1461 1462 1462 1462 1462 1462 1462 1461 1461 1461 1461 1462 1462 1462 1462 1462 1462 1462 1461 1461 1461 1461 1461 1461 1462 1462 1463 1463 1464 1465 1465 1466 1466 1466 1466 1466 1466 1466 1466 1466 1466 1466 1466 1467
1454 1454 1454 1455 1455 1455 1455 1455 1455 1455 1455 1455 1456 1456 1456 1457 1457 1457 1458 1458 1458 1459 1459 1459 1460 1460 1460 1461 1461 1460 1460 1459 1459 1459 1459 1460 1460 1460 1460 1460 1460 1460 1460 1460 1460 1460 1460 1460 1460 1461 1462 1462 1463 1463 1464 1464 1464 1464 1464 1464 1464 1464 1464 1464 1464 1464 1464 1464 1464
1455 1455 1455 1455 1455 1455 1455 1455 1455 1455 1455 1456 1456 1456 1456 1457 1457 1457 1457 1457 1457 1458 1458 1458 1458 1459 1459 1459 1459 1458 1458 1458 1458 1458 1458 1458 1459 1459 1459 1459 1459 1459 1459 1459 1459 1459 1459 1459 1460 1460 1461 1461 1462 1462 1462 1463 1463 1463 1463 1463 1463 1463 1463 1463 1463 1463 1463 1463 1463
1455 1455 1455 1455 1455 1455 1454 1454 1454 1455 1455 1455 1455 1456 1456 1456 1456 1456 1456 1456 1456 1457 1457 1457 1457 1457 1457 1457 1457 1457 1457 1457 1457 1457 1457 1458 1458 1458 1458 1458 1458 1458 1458 1458 1458 1458 1458 1458 1459 1459 1459 1460 1460 1461 1461 1462 1462 1462 1462 1462 1462 1462 1462 1462 1462 1462 1462 1462 1462
1455 1455 1454 1454 1454 1454 1454 1454 1454 1454 1454 1454 1455 1455 1455 1456 1456 1456 1456 1456 1456 1456 1456 1456 1456 1456 1456 1456 1456 1456 1456 1456 1456 1456 1457 1457 1457 1457 1457 1457 1457 1457 1457 1457 1457 1457 1457 1457 1457 1458 1458 1458 1459 1459 1460 1460 1460 1460 1460 1461 1461 1461 1461 1461 1461 1461 1461 1461 1460
1454 1454 1454 1454 1454 1454 1454 1453 1453 1453 1453 1454 1454 1454 1454 1455 1455 1455 1455 1455 1455 1455 1455 1455 1455 1455 1455 1455 1455 1455 1455 1455 1455 1455 1456 1456 1456 1456 1456 1456 1456 1456 1456 1456 1456 1456 1456 1456 1456 1456 1457 1457 1457 1457 1457 1458 1458 1458 1458 1459 1459 1459 1459 1459 1459 1459 1459 1459 1459
1454 1454 1454 1454 1453 1453 1453 1453 1453 1453 1453 1453 1453 1453 1453 1453 1454 1454 1454 1454 1454 1454 1454 1454 1454 1454 1453 1453 1453 1453 1454 1454 1454 1454 1454 1454 1454 1455 1455 1455 1455 1455 1455 1455 1455 1455 1455 1455 1455 1455 1455 1455 1455 1456 1456 1456 1456 1456 1457 1457 1457 1457 1457 1457 1457 1457 1457 1457 1457
1453 1453 1453 1453 1453 1453 1452 1452 1452 1452 1452 1452 1452 1452 1452 1452 1453 1453 1453 1453 1453 1453 1452 1452 1452 1452 1452 1452 1452 1452 1452 1452 1452 1452 1452 1452 1452 1453 1453 1453 1454 1454 1454 1454 1454 1454 1454 1454 1454 1454 1454 1454 1454 1454 1455 1455 1455 1455 1455 1455 1455 1455 1455 1455 1455 1455 1455 1455 1456
1452 1452 1452 1452 1452 1452 1452 1452 1452 1452 1452 1452 1452 1452 1452 1452 1452 1452 1452 1452 1452 1451 1451 1451 1451 1451 1450 1450 1450 1450 1450 1450 1450 1450 1450 1450 1451 1451 1451 1452 1452 1452 1452 1453 1453 1453 1453 1453 1453 1453 1453 1453 1453 1453 1453 1453 1453 1453 1453 1453 1453 1453 1453 1453 1453 1453 1453 1453 1454
1452 1451 1451 1451 1451 1451 1451 1451 1451 1451 1451 1452 1452 1452 1452 1452 1451 1451 1451 1450 1450 1450 1450 1449 1449 1449 1449 1449 1448 1448 1448 1448 1448 1448 1448 1448 1448 1448 1449 1449 1450 1450 1451 1451 1451 1452 1452 1452 1452 1452 1452 1452 1452 1452 1452 1452 1452 1452 1452 1452 1451 1451 1451 1451 1451 1451 1451 1451 1452
1451 1451 1451 1451 1451 1450 1450 1450 1450 1450 1450 1451 1451 1451 1451 1451 1450 1450 1450 1449 1449 1448 1448 1448 1448 1447 1447 1447 1447 1447 1447 1447 1447 1447 1447 1447 1447 1447 1447 1447 1448 1448 1449 1449 1449 1450 1450 1450 1450 1450 1450 1450 1450 1450 1451 1451 1451 1451 1450 1450 1450 1449 1449 1449 1449 1449 1449 1449 1450
1451 1450 1450 1450 1450 1450 1450 1450 1450 1449 1449 1449 1449 1449 1449 1449 1449 1448 1448 1448 1447 1447 1447 1446 1446 1446 1446 1446 1446 1446 1445 1445 1445 1445 1445 1445 1445 1445 1445 1446 1446 1446 1447 1447 1447 1448 1448 1448 1448 1448 1449 1449 1449 1449 1449 1449 1449 1449 1448 1448 1448 1448 1448 1447 1447 1447 1447 1447 1448
1450 1450 1450 1450 1449 1449 1449 1449 1449 1449 1448 1448 1448 1447 1447 1447 1447 1446 1446 1446 1446 1445 1445 1445 1445 1444 1444 1444 1444 1444 1444 1443 1443 1443 1443 1443 1443 1443 1443 1443 1443 1444 1444 1444 1445 1445 1446 1446 1446 1446 1447 1447 1447 1447 1447 1447 1447 1447 1446 1446 1446 1446 1446 1446 1446 1446 1446 1446 1446
1450 1450 1449 1449 1449 1449 1448 1448 1448 1448 1447 1447 1446 1446 1445 1445 1444 1444 1444 1443 1443 1443 1443 1443 1443 1443 1443 1442 1442 1442 1442 1442 1442 1442 1441 1441 1441 1441 1441 1441 1441 1441 1441 1442 1442 1442 1443 1443 1444 1444 1444 1444 1444 1444 1444 1444 1444 1444 1444 1444 1444 1444 1444 1444 1444 1444 1444 1444 1444
1449 1449 1449 1448 1448 1448 1448 1447 1447 1447 1446 1446 1445 1444 1444 1443 1442 1442 1442 1441 1441 1441 1441 1441 1441 1441 1441 1441 1441 1441 1440 1440 1440 1439 1439 1439 1439 1439 1439 1439 1439 1439 1439 1439 1440 1440 1441 1441 1442 1442 1442 1442 1442 1442 1442 1441 1441 1441 1441 1442 1442 1442 1442 1442 1442 1442 1442 1442 1442
1448 1448 1448 1448 1447 1447 1447 1447 1446 1445 1445 1444 1444 1443 1442 1442 1441 1441 1440 1440 1439 1439 1438 1438 1438 1438 1439 1439 1439 1439 1439 1438 1438 1438 1437 1437 1437 1437 1437 1437 1437 1437 1437 1437 1437 1438 1438 1439 1439 1439 1439 1439 1439 1439 1439 1439 1439 1439 1439 1439 1439 1440 1440 1440 1440 1440 1440 1440 1441
1447 1447 1447 1447 1447 1446 1446 1445 1445 1444 1443 1443 1442 1442 1441 1441 1440 1439 1439 1438 1438 1437 1437 1437 1436 1436 1436 1436 1436 1437 1437 1437 1436 1436 1436 1435 1435 1435 1435 1435 1434 1434 1434 1435 1435 1435 1436 1436 1437 1437 1437 1437 1437 1437 1437 1437 1437 1437 1437 1437 1437 1437 1437 1438 1438 1438 1438 1439 1439
1446 1446 1445 1445 1445 1444 1444 1444 1443 1442 1442 1442 1441 1440 1440 1439 1438 1438 1437 1437 1436 1436 1435 1435 1434 1434 1434 1434 1434 1434 1434 1434 1434 1434 1434 1433 1433 1433 1433 1432 1432 1432 1432 1432 1432 1432 1433 1433 1434 1434 1435 1435 1435 1435 1435 1435 1435 1435 1434 1434 1435 1435 1435 1436 1436 1437 1437 1437 1437
1444 1444 1444 1443 1443 1443 1442 1442 1442 1441 1441 1440 1439 1439 1438 1437 1437 1436 1435 1435 1434 1434 1433 1433 1433 1432 1432 1432 1432 1432 1432 1432 1432 1432 1432 1431 1431 1431 1431 1430 1430 1430 1430 1430 1430 1430 1430 1431 1431 1432 1432 1433 1433 1433 1432 1432 1432 1432 1432 1432 1432 1433 1433 1433 1434 1434 1435 1436 1436
1443 1442 1442 1442 1441 1441 1440 1440 1440 1439 1439 1438 1438 1437 1437 1436 1435 1435 1434 1433 1433 1432 1432 1431 1431 1431 1430 1430 1430 1430 1429 1429 1429 1429 1429 1429 1429 1428 1428 1428 1428 1428 1428 1428 1427 1427 1428 1428 1428 1429 1429 1430 1430 1430 1430 1430 1430 1430 1430 1430 1430 1430 1431 1431 1432 1432 1432 1433 1433
1442 1442 1441 1440 1440 1439 1439 1438 1438 1437 1437 1436 1436 1435 1435 1434 1434 1433 1432 1432 1431 1431 1430 1430 1429 1428 1428 1428 1427 1427 1427 1427 1427 1427 1427 1427 1426 1426 1426 1426 1426 1426 1426 1426 1425 1425 1425 1425 1426 1426 1427 1427 1427 1427 1427 1427 1427 1427 1427 1427 1428 1428 1428 1429 1429 1430 1430 1431 1431
1441 1440 1440 1439 1438 1438 1437 1437 1436 1435 1435 1434 1434 1433 1432 1432 1432 1431 1431 1430 1430 1429 1429 1428 1428 1427 1427 1426 1425 1425 1425 1424 1424 1424 1424 1424 1424 1424 1423 1423 1423 1424 1424 1423 1423 1423 1423 1423 1423 1423 1424 1425 1425 1425 1425 1425 1425 1425 1425 1425 1425 1426 1426 1427 1427 1427 1428 1428 1429
1440 1439 1439 1438 1437 1437 1436 1435 1434 1434 1433 1432 1432 1431 1431 1430 1429 1429 1428 1428 1427 1427 1427 1427 1426 1426 1425 1425 1424 1423 1423 1422 1422 1422 1422 1421 1421 1421 1421 1421 1421 1422 1422 1421 1421 1421 1421 1421 1421 1421 1422 1422 1422 1422 1422 1422 1422 1422 1422 1422 1423 1423 1424 1424 1425 1425 1426 1426 1427
1439 1438 1437 1437 1436 1435 1435 1434 1433 1432 1432 1431 1430 1429 1429 1428 1427 1427 1426 1426 1425 1425 1425 1424 1424 1424 1423 1423 1422 1422 1421 1420 1420 1419 1419 1419 1419 1418 1418 1418 1419 1419 1419 1419 1419 1419 1419 1418 1418 1419 1419 1419 1419 1419 1420 1420 1420 1420 1420 1420 1420 1421 1421 1422 1422 1423 1423 1424 1424
1438 1437 1436 1436 1435 1434 1433 1432 1432 1431 1430 1429 1428 1428 1427 1426 1426 1425 1424 1424 1423 1422 1422 1422 1422 1421 1421 1421 1420 1420 1419 1419 1418 1417 1417 1417 1416 1416 1416 1415 1416 1416 1417 1417 1417 1417 1417 1417 1417 1417 1417 1417 1417 1417 1417 1417 1417 1417 1417 1418 1418 1418 1418 1419 1420 1420 1421 1421 1422
1437 1436 1435 1434 1433 1433 1432 1431 1430 1429 1428 1428 1427 1426 1425 1424 1424 1423 1422 1422 1421 1420 1419 1419 1419 1418 1418 1418 1418 1417 1417 1417 1417 1416 1415 1415 1414 1414 1413 1413 1413 1413 1414 1414 1415 1415 1415 1415 1415 1414 1414 1414 1414 1414 1414 1415 1415 1415 1415 1415 1415 1416 1416 1417 1417 1418 1418 1419 1420
1436 1435 1434 1433 1432 1432 1431 1430 1429 1428 1427 1426 1426 1425 1424 1423 1422 1421 1420 1420 1419 1418 1417 1417 1416 1416 1416 1415 1415 1415 1415 1415 1415 1414 1413 1413 1412 1412 1411 1410 1410 1411 1411 1412 1412 1412 1412 1413 1412 1412 1412 1412 1412 1412 1412 1412 1412 1412 1412 1412 1413 1413 1414 1414 1415 1415 1416 1417 1417
1436 1435 1434 1433 1432 1431 1430 1429 1428 1427 1427 1426 1424 1423 1422 1422 1421 1420 1419 1418 1417 1416 1415 1414 1414 1413 1413 1412 1412 1412 1412 1412 1412 1412 1412 1411 1410 1409 1409 1408 1408 1408 1408 1409 1409 1410 1410 1410 1410 1410 1410 1410 1410 1410 1410 1410 1410 1410 1410 1410 1410 1411 1411 1412 1412 1413 1413 1414 1415
1435 1434 1433 1432 1431 1430 1429 1428 1427 1426 1426 1425 1424 1422 1422 1421 1420 1418 1417 1417 1416 1415 1413 1412 1412 1411 1411 1410 1409 1409 1408 1408 1409 1409 1409 1409 1408 1407 1407 1406 1406 1406 1406 1406 1407 1407 1407 1408 1408 1408 1408 1408 1408 1408 1408 1408 1408 1407 1407 1408 1408 1408 1409 1409 1410 1411 1411 1412 1412